Location: Arpaise
(41.0333°N, 14.7333°E)
Time: 09:17:26
(UTC+00:00)

Cosmos 846 Rocket - Visible Passes

Search period start: 17 January 2021 00:00
Search period end: 27 January 2021 00:00
Orbit: 948 x 991 km, 82.9° (Epoch: 17 January)

Date Brightness Start Highest point End Pass type
(mag) Time Alt. Az. Time Alt. Az. Time Alt. Az.
17 Jan 6.3 05:38:32 10° N 05:44:32 54° E 05:50:29 10° SSE visible
17 Jan 7.3 19:06:40 10° SSW 19:08:28 20° SSW 19:08:28 20° SSW visible
18 Jan 8.1 04:19:06 10° NE 04:22:03 14° ENE 04:24:59 10° E visible
18 Jan 6.8 17:46:17 10° SE 17:48:52 22° SE 17:48:52 22° SE visible
18 Jan 7.2 19:30:47 10° SW 19:33:31 25° SW 19:33:31 25° SW visible
19 Jan 7.6 04:41:13 10° NNE 04:46:05 24° ENE 04:50:55 10° SE visible
19 Jan 5.6 18:08:53 10° SSE 18:14:08 49° ESE 18:14:08 49° ESE visible
19 Jan 7.6 19:55:36 10° WSW 19:58:48 21° W 19:58:48 21° W visible
20 Jan 6.8 05:04:10 10° N 05:09:57 42° ENE 05:15:40 10° SSE visible
20 Jan 7.0 16:51:39 10° ESE 16:54:06 13° E 16:55:03 12° ENE visible
20 Jan 5.4 18:32:09 10° S 18:38:24 89° W 18:39:45 58° N visible
20 Jan 8.1 20:21:39 10° W 20:24:28 13° WNW 20:24:28 13° WNW visible
21 Jan 8.5 03:46:47 10° ENE 03:47:15 10° ENE 03:47:43 10° ENE visible
21 Jan 5.7 05:27:30 10° N 05:33:38 73° E 05:39:43 10° SSE visible
21 Jan 6.5 17:12:30 10° SE 17:17:14 23° E 17:21:27 12° NE visible
21 Jan 6.1 18:55:59 10° SSW 19:02:02 52° WNW 19:06:17 20° N visible
22 Jan 7.9 04:07:12 10° NNE 04:11:23 19° ENE 04:15:33 10° ESE visible
22 Jan 5.5 05:51:07 10° NNW 05:57:10 64° W 06:03:10 10° S visible
22 Jan 5.8 17:34:45 10° SSE 17:40:30 40° E 17:46:13 10° NNE visible
22 Jan 7.1 19:20:27 10° SW 19:25:49 30° WNW 19:31:11 10° NNW visible
23 Jan 7.2 04:29:53 10° NNE 04:35:19 32° ENE 04:40:43 10° SE visible
23 Jan 5.3 17:57:43 10° S 18:03:56 72° E 18:10:05 10° NNE visible
23 Jan 7.9 19:45:49 10° WSW 19:49:47 17° WNW 19:53:45 10° NNW visible
24 Jan 6.1 04:53:04 10° N 04:59:04 57° E 05:05:04 10° SSE visible
24 Jan 6.8 16:38:59 10° ESE 16:42:55 18° E 16:46:49 10° NE visible
24 Jan 5.8 18:21:18 10° SSW 18:27:29 67° W 18:33:39 10° N visible
25 Jan 8.2 03:33:26 10° NNE 03:36:39 14° ENE 03:39:51 10° E visible
25 Jan 5.4 05:16:33 10° N 05:22:41 83° W 05:28:47 10° S visible
25 Jan 6.1 17:00:46 10° SSE 17:06:07 31° E 17:11:26 10° NNE visible
25 Jan 6.8 18:45:28 10° SW 18:51:12 38° WNW 18:56:55 10° N visible
26 Jan 7.5 03:55:41 10° NNE 04:00:40 25° ENE 04:05:37 10° SE visible
26 Jan 5.7 05:40:20 10° NNW 05:46:08 47° W 05:51:56 10° SSW visible
26 Jan 5.5 17:23:26 10° SSE 17:29:28 55° E 17:35:28 10° NNE visible
26 Jan 7.6 19:10:22 10° WSW 19:15:05 22° WNW 19:19:47 10° NNW visible
